Location: Favalello
(42.2939°N, 9.2706°E)
Time: 18:23:41
(UTC+00:00)

Cosmos 1900 - Pass Details

Date: 06 December 2019
Orbit: 692 x 730 km, 66.1° (Epoch: 18 January)

Event Time Altitude Azimuth Distance (km) Brightness Sun altitude
Rises 17:40:10 0° 331° (NNW) 3,080 7.8 -19.6°
Reaches altitude 10° 17:42:33 10° 336° (NNW) 2,156 7.0 -20.0°
Maximum altitude 17:47:23 57° 55° (NE) 816 4.3 -20.9°
Enters shadow 17:48:13 50° 95° (E) 885 4.4 -21.1°
